Ardmore, OK

9:20 AM CDT on October 22, 2017 (GMT -0500)
Ardmore Municipal

Weather History for KADM - September, 2012

Change the Weather History Date:

Wednesday, September 12, 2012

  Actual Average Record
Temperature  
Mean Temperature 68 °F -  
Max Temperature 73 °F 85 °F 100 °F (2011)
Min Temperature 64 °F 64 °F 51 °F (2007)
Cooling Degree Days 4    
Growing Degree Days 18 (Base 50)    
Moisture  
Dew Point 56 °F    
Average Humidity 67    
Maximum Humidity 83    
Minimum Humidity 53    
Precipitation  
Precipitation 0.00 in - - ()
Sea Level Pressure  
Sea Level Pressure 30.01 in    
Wind  
Wind Speed 5 mph (ESE)    
Max Wind Speed 7 mph    
Max Gust Speed -    
Visibility 10 miles    
Events      
Averages and records for this station are not official NWS values.
T = Trace of Precipitation, MM = Missing Value Source: NWS Daily Summary

Daily Weather History Graph

Daily Weather History Graph

Search for Another Location

Airport or City:

Trip Planner

Search our weather history database for the weather conditions in past years. The results will help you decide how hot, cold, wet, or windy it might be!

Date:

Astronomy

Sep. 12, 2012 Rise Set
Actual Time 7:09 AM CDT 7:38 PM CDT
Civil Twilight 6:44 AM CDT 8:03 PM CDT
Nautical Twilight 6:14 AM CDT 8:32 PM CDT
Astronomical Twilight 5:44 AM CDT 9:03 PM CDT
Moon 3:35 AM CDT (9/12) 5:20 PM CDT (9/12)
Length of Visible Light 13h 19m
Length of Day
12h 28m
Waning Crescent, 13% of the Moon is Illuminated
Sep 12
Waning Crescent
Sep 15
New
Sep 22
First Quarter
Sep 29
Full
Oct 8
Last Quarter

Hourly Weather History & Observations

Time (CDT) Temp. Dew Point Humidity Pressure Visibility Wind Dir Wind Speed Gust Speed Precip Events Conditions
12:15 AM 71.6 °F 53.6 °F 53% 30.02 in 10.0 mi SE 4.6 mph - N/A   Clear
12:35 AM 69.8 °F 53.6 °F 56% 30.02 in 10.0 mi SE 5.8 mph - N/A   Clear
12:55 AM 69.8 °F 53.6 °F 56% 30.02 in 10.0 mi SE 4.6 mph - N/A   Clear
1:15 AM 69.8 °F 55.4 °F 60% 30.01 in 10.0 mi SE 5.8 mph - N/A   Clear
1:35 AM 69.8 °F 55.4 °F 60% 30.01 in 10.0 mi SE 4.6 mph - N/A   Clear
1:55 AM 69.8 °F 55.4 °F 60% 30.01 in 10.0 mi SE 4.6 mph - N/A   Clear
2:15 AM 68.0 °F 55.4 °F 64% 30.01 in 10.0 mi Calm Calm - N/A   Clear
2:35 AM 64.4 °F 55.4 °F 73% 30.01 in 5.0 mi Calm Calm - N/A   Haze
2:55 AM 64.4 °F 55.4 °F 73% 30.00 in 10.0 mi SE 4.6 mph - N/A   Clear
3:15 AM 68.0 °F 55.4 °F 64% 30.00 in 10.0 mi SE 5.8 mph - N/A   Clear
3:35 AM 68.0 °F 55.4 °F 64% 30.00 in 10.0 mi SE 6.9 mph - N/A   Clear
3:55 AM 66.2 °F 55.4 °F 68% 30.00 in 10.0 mi SSE 4.6 mph - N/A   Clear
4:15 AM 66.2 °F 55.4 °F 68% 30.00 in 10.0 mi East 3.5 mph - N/A   Clear
4:35 AM 64.4 °F 55.4 °F 73% 30.00 in 10.0 mi East 5.8 mph - N/A   Clear
4:55 AM 64.4 °F 57.2 °F 77% 30.01 in 10.0 mi East 5.8 mph - N/A   Clear
5:15 AM 64.4 °F 57.2 °F 77% 30.01 in 10.0 mi East 4.6 mph - N/A   Clear
5:35 AM 64.4 °F 57.2 °F 77% 30.02 in 10.0 mi East 5.8 mph - N/A   Clear
5:55 AM 64.4 °F 59.0 °F 83% 30.02 in 10.0 mi ESE 6.9 mph - N/A   Clear
6:15 AM 66.2 °F 59.0 °F 78% 30.03 in 10.0 mi ESE 5.8 mph - N/A   Clear
6:35 AM 64.4 °F 59.0 °F 83% 30.03 in 10.0 mi SE 4.6 mph - N/A   Clear
11:35 PM 73.4 °F 57.2 °F 57% 30.02 in 10.0 mi ESE 3.5 mph - N/A   Clear
11:55 PM 73.4 °F 55.4 °F 53% 30.02 in 10.0 mi ESE 3.5 mph - N/A   Clear